Time,TemperatureF,DewpointF,PressureIn,WindDirection,WindDirectionDegrees,WindSpeedMPH,WindSpeedGustMPH,Humidity,HourlyPrecipIn,Conditions,Clouds,dailyrainin,SoftwareType,DateUTC
2013-01-04 00:02:00,29.0,25.0,31.06,SW,214,5.0,13.0,85,0.00,CLR,CLR,0.00,WeatherDisplay:10.37,2013-01-04 05:02:00,
2013-01-04 00:07:00,29.0,25.0,31.05,SW,217,8.0,12.0,85,0.00,CLR,CLR,0.00,WeatherDisplay:10.37,2013-01-04 05:07:00,
2013-01-04 00:12:00,29.0,25.1,31.05,SW,214,10.0,14.0,85,0.00,CLR,CLR,0.00,WeatherDisplay:10.37,2013-01-04 05:12:00,
2013-01-04 00:17:00,29.0,25.1,31.06,SW,215,8.0,14.0,85,0.00,CLR,CLR,0.00,WeatherDisplay:10.37,2013-01-04 05:17:00,
2013-01-04 00:22:00,29.0,25.1,31.05,SW,215,8.0,13.0,85,0.00,CLR,CLR,0.00,WeatherDisplay:10.37,2013-01-04 05:22:00,
2013-01-04 00:27:00,29.0,25.1,31.06,SW,219,7.0,14.0,85,0.00,CLR,CLR,0.00,WeatherDisplay:10.37,2013-01-04 05:27:00,
2013-01-04 00:32:00,28.9,25.0,31.05,SW,218,9.0,17.0,85,0.00,CLR,CLR,0.00,WeatherDisplay:10.37,2013-01-04 05:32:00,
2013-01-04 00:37:00,28.9,25.0,31.05,SW,219,8.0,15.0,85,0.00,CLR,CLR,0.00,WeatherDisplay:10.37,2013-01-04 05:37:00,
2013-01-04 00:42:00,28.9,25.0,31.05,SW,219,7.0,15.0,85,0.00,CLR,CLR,0.00,WeatherDisplay:10.37,2013-01-04 05:42:00,
2013-01-04 00:47:00,28.9,25.0,31.05,SW,216,9.0,13.0,85,0.00,CLR,CLR,0.00,WeatherDisplay:10.37,2013-01-04 05:47:00,
2013-01-04 00:52:00,28.9,25.0,31.05,SW,219,12.0,15.0,85,0.00,CLR,CLR,0.00,WeatherDisplay:10.37,2013-01-04 05:52:00,
2013-01-04 00:57:00,28.9,25.0,31.04,SW,220,10.0,16.0,85,0.00,CLR,CLR,0.00,WeatherDisplay:10.37,2013-01-04 05:57:00,
2013-01-04 01:02:00,29.0,25.1,31.04,SW,218,8.0,13.0,85,0.00,CLR,CLR,0.00,WeatherDisplay:10.37,2013-01-04 06:02:00,
2013-01-04 01:07:00,29.0,25.1,31.04,SW,220,10.0,20.0,85,0.00,CLR,CLR,0.00,WeatherDisplay:10.37,2013-01-04 06:07:00,
2013-01-04 01:12:00,29.0,25.1,31.04,SW,218,9.0,17.0,85,0.00,CLR,CLR,0.00,WeatherDisplay:10.37,2013-01-04 06:12:00,
2013-01-04 01:17:00,29.0,25.1,31.04,SW,218,10.0,17.0,85,0.00,CLR,CLR,0.00,WeatherDisplay:10.37,2013-01-04 06:17:00,
2013-01-04 01:22:00,29.0,25.1,31.04,SW,221,9.0,14.0,85,0.00,CLR,CLR,0.00,WeatherDisplay:10.37,2013-01-04 06:22:00,
2013-01-04 01:27:00,29.0,24.8,31.04,SW,219,9.0,15.0,84,0.00,CLR,CLR,0.00,WeatherDisplay:10.37,2013-01-04 06:27:00,
2013-01-04 01:32:00,29.0,24.8,31.04,SW,224,9.0,20.0,84,0.00,CLR,CLR,0.00,WeatherDisplay:10.37,2013-01-04 06:32:00,
2013-01-04 01:37:00,29.0,24.8,31.04,SW,225,7.0,12.0,84,0.00,CLR,CLR,0.00,WeatherDisplay:10.37,2013-01-04 06:37:00,
2013-01-04 01:42:00,29.0,24.8,31.04,SW,221,8.0,15.0,84,0.00,CLR,CLR,0.00,WeatherDisplay:10.37,2013-01-04 06:42:00,
2013-01-04 01:47:00,28.9,24.7,31.04,SW,219,8.0,14.0,84,0.00,CLR,CLR,0.00,WeatherDisplay:10.37,2013-01-04 06:47:00,
2013-01-04 01:52:00,28.9,24.7,31.04,SW,219,8.0,14.0,84,0.00,CLR,CLR,0.00,WeatherDisplay:10.37,2013-01-04 06:52:00,
2013-01-04 01:57:00,28.9,24.7,31.04,SW,219,8.0,13.0,84,0.00,CLR,CLR,0.00,WeatherDisplay:10.37,2013-01-04 06:57:00,
2013-01-04 02:02:00,28.9,24.7,31.04,SW,221,6.0,13.0,84,0.00,CLR,CLR,0.00,WeatherDisplay:10.37,2013-01-04 07:02:00,
2013-01-04 02:07:00,28.8,24.6,31.04,SW,223,7.0,13.0,84,0.00,CLR,CLR,0.00,WeatherDisplay:10.37,2013-01-04 07:07:00,
2013-01-04 02:12:00,28.8,24.6,31.04,SW,224,9.0,13.0,84,0.00,CLR,CLR,0.00,WeatherDisplay:10.37,2013-01-04 07:12:00,
2013-01-04 02:17:00,28.9,24.4,31.04,SW,220,8.0,13.0,83,0.00,CLR,CLR,0.00,WeatherDisplay:10.37,2013-01-04 07:17:00,
2013-01-04 02:22:00,28.9,24.6,31.05,SW,221,8.0,13.0,84,0.00,CLR,CLR,0.00,WeatherDisplay:10.37,2013-01-04 07:22:00,
2013-01-04 02:27:00,28.8,24.6,31.05,SW,223,9.0,13.0,84,0.00,CLR,CLR,0.00,WeatherDisplay:10.37,2013-01-04 07:27:00,
2013-01-04 02:32:00,28.8,24.3,31.05,SW,221,7.0,12.0,83,0.00,CLR,CLR,0.00,WeatherDisplay:10.37,2013-01-04 07:32:00,
2013-01-04 02:37:00,28.9,24.4,31.05,SW,225,9.0,15.0,83,0.00,CLR,CLR,0.00,WeatherDisplay:10.37,2013-01-04 07:37:00,
2013-01-04 02:42:00,28.8,24.3,31.05,SW,223,10.0,13.0,83,0.00,CLR,CLR,0.00,WeatherDisplay:10.37,2013-01-04 07:42:00,
2013-01-04 02:47:00,28.8,24.3,31.05,SW,225,7.0,12.0,83,0.00,CLR,CLR,0.00,WeatherDisplay:10.37,2013-01-04 07:47:00,
2013-01-04 02:52:00,28.8,24.3,31.05,SW,223,9.0,13.0,83,0.00,CLR,CLR,0.00,WeatherDisplay:10.37,2013-01-04 07:52:00,
2013-01-04 02:57:00,28.8,24.3,31.05,SW,222,9.0,12.0,83,0.00,CLR,CLR,0.00,WeatherDisplay:10.37,2013-01-04 07:57:00,
2013-01-04 03:02:00,28.8,24.3,31.05,SW,223,7.0,12.0,83,0.00,CLR,CLR,0.00,WeatherDisplay:10.37,2013-01-04 08:02:00,
2013-01-04 03:07:00,28.8,24.3,31.05,SW,217,8.0,12.0,83,0.00,CLR,CLR,0.00,WeatherDisplay:10.37,2013-01-04 08:07:00,
2013-01-04 03:12:00,28.8,24.0,31.05,SSW,212,8.0,14.0,82,0.00,CLR,CLR,0.00,WeatherDisplay:10.37,2013-01-04 08:12:00,
2013-01-04 03:17:00,28.8,24.0,31.05,SSW,213,7.0,12.0,82,0.00,CLR,CLR,0.00,WeatherDisplay:10.37,2013-01-04 08:17:00,
2013-01-04 03:22:00,28.7,23.9,31.05,SW,214,8.0,12.0,82,0.00,CLR,CLR,0.00,WeatherDisplay:10.37,2013-01-04 08:22:00,
2013-01-04 03:27:00,28.8,24.0,31.05,SW,216,7.0,10.0,82,0.00,CLR,CLR,0.00,WeatherDisplay:10.37,2013-01-04 08:27:00,
2013-01-04 03:32:00,28.8,24.0,31.05,SW,219,6.0,10.0,82,0.00,CLR,CLR,0.00,WeatherDisplay:10.37,2013-01-04 08:32:00,
2013-01-04 03:37:00,28.7,23.9,31.05,SW,219,7.0,9.0,82,0.00,CLR,CLR,0.00,WeatherDisplay:10.37,2013-01-04 08:37:00,
2013-01-04 03:42:00,28.7,23.9,31.05,SW,219,8.0,12.0,82,0.00,CLR,CLR,0.00,WeatherDisplay:10.37,2013-01-04 08:42:00,
2013-01-04 03:47:00,28.7,23.6,31.05,SW,220,10.0,13.0,81,0.00,CLR,CLR,0.00,WeatherDisplay:10.37,2013-01-04 08:47:00,
2013-01-04 03:52:00,28.8,23.7,31.05,SW,218,6.0,9.0,81,0.00,CLR,CLR,0.00,WeatherDisplay:10.37,2013-01-04 08:52:00,
2013-01-04 03:57:00,28.8,23.7,31.05,SSW,211,6.0,13.0,81,0.00,CLR,CLR,0.00,WeatherDisplay:10.37,2013-01-04 08:57:00,
2013-01-04 04:02:00,28.7,23.6,31.05,SSW,212,8.0,12.0,81,0.00,CLR,CLR,0.00,WeatherDisplay:10.37,2013-01-04 09:02:00,
2013-01-04 04:07:00,28.7,23.6,31.05,SW,214,8.0,12.0,81,0.00,CLR,CLR,0.00,WeatherDisplay:10.37,2013-01-04 09:07:00,
2013-01-04 04:12:00,28.7,23.6,31.04,SSW,213,7.0,13.0,81,0.00,CLR,CLR,0.00,WeatherDisplay:10.37,2013-01-04 09:12:00,
2013-01-04 04:17:00,28.7,23.3,31.04,SSW,211,8.0,13.0,80,0.00,CLR,CLR,0.00,WeatherDisplay:10.37,2013-01-04 09:17:00,
2013-01-04 04:22:00,28.8,23.4,31.04,SSW,210,9.0,14.0,80,0.00,CLR,CLR,0.00,WeatherDisplay:10.37,2013-01-04 09:22:00,
2013-01-04 04:27:00,28.8,23.4,31.04,SSW,211,8.0,15.0,80,0.00,CLR,CLR,0.00,WeatherDisplay:10.37,2013-01-04 09:27:00,
2013-01-04 04:32:00,28.7,23.3,31.03,SSW,210,10.0,14.0,80,0.00,CLR,CLR,0.00,WeatherDisplay:10.37,2013-01-04 09:32:00,
2013-01-04 04:37:00,28.7,23.3,31.03,SSW,209,6.0,10.0,80,0.00,CLR,CLR,0.00,WeatherDisplay:10.37,2013-01-04 09:37:00,
2013-01-04 04:42:00,28.7,23.3,31.03,SW,214,8.0,14.0,80,0.00,CLR,CLR,0.00,WeatherDisplay:10.37,2013-01-04 09:42:00,
2013-01-04 04:47:00,28.7,23.3,31.03,SSW,212,9.0,15.0,80,0.00,CLR,CLR,0.00,WeatherDisplay:10.37,2013-01-04 09:47:00,
2013-01-04 04:52:00,28.7,23.3,31.03,SSW,204,10.0,17.0,80,0.00,CLR,CLR,0.00,WeatherDisplay:10.37,2013-01-04 09:52:00,
2013-01-04 04:57:00,28.7,23.3,31.03,SSW,208,8.0,12.0,80,0.00,CLR,CLR,0.00,WeatherDisplay:10.37,2013-01-04 09:57:00,
2013-01-04 05:02:00,28.7,23.3,31.03,SW,214,9.0,12.0,80,0.00,CLR,CLR,0.00,WeatherDisplay:10.37,2013-01-04 10:02:00,
2013-01-04 05:12:00,28.7,23.6,31.03,SSW,212,10.0,15.0,81,0.00,CLR,CLR,0.00,WeatherDisplay:10.37,2013-01-04 10:12:00,
2013-01-04 05:17:00,28.7,23.6,31.03,SSW,213,9.0,20.0,81,0.00,CLR,CLR,0.00,WeatherDisplay:10.37,2013-01-04 10:17:00,
2013-01-04 05:22:00,28.6,23.2,31.02,SSW,209,12.0,14.0,80,0.00,CLR,CLR,0.00,WeatherDisplay:10.37,2013-01-04 10:22:00,
2013-01-04 05:27:00,28.6,23.5,31.02,SSW,207,10.0,13.0,81,0.00,CLR,CLR,0.00,WeatherDisplay:10.37,2013-01-04 10:27:00,
2013-01-04 05:32:00,28.7,23.3,31.02,SSW,209,12.0,15.0,80,0.00,CLR,CLR,0.00,WeatherDisplay:10.37,2013-01-04 10:32:00,
2013-01-04 05:37:00,28.7,23.3,31.02,SSW,209,10.0,16.0,80,0.00,CLR,CLR,0.00,WeatherDisplay:10.37,2013-01-04 10:37:00,
2013-01-04 05:42:00,28.6,23.2,31.02,SSW,209,10.0,17.0,80,0.00,CLR,CLR,0.00,WeatherDisplay:10.37,2013-01-04 10:42:00,
2013-01-04 05:47:00,28.6,23.2,31.02,SSW,205,10.0,18.0,80,0.00,CLR,CLR,0.00,WeatherDisplay:10.37,2013-01-04 10:47:00,
2013-01-04 05:52:00,28.6,23.2,31.02,SSW,213,7.0,16.0,80,0.00,CLR,CLR,0.00,WeatherDisplay:10.37,2013-01-04 10:52:00,
2013-01-04 05:57:00,28.5,23.1,31.02,SW,217,10.0,14.0,80,0.00,CLR,CLR,0.00,WeatherDisplay:10.37,2013-01-04 10:57:00,
2013-01-04 06:02:00,28.5,23.1,31.03,SW,217,8.0,14.0,80,0.00,CLR,CLR,0.00,WeatherDisplay:10.37,2013-01-04 11:02:00,
2013-01-04 06:07:00,28.5,23.1,31.03,SSW,213,10.0,15.0,80,0.00,CLR,CLR,0.00,WeatherDisplay:10.37,2013-01-04 11:07:00,
2013-01-04 06:12:00,28.6,23.2,31.03,SSW,212,10.0,15.0,80,0.00,CLR,CLR,0.00,WeatherDisplay:10.37,2013-01-04 11:12:00,
2013-01-04 06:17:00,28.5,23.1,31.03,SW,214,8.0,12.0,80,0.00,CLR,CLR,0.00,WeatherDisplay:10.37,2013-01-04 11:17:00,
2013-01-04 06:22:00,28.5,23.1,31.04,SW,217,8.0,12.0,80,0.00,CLR,CLR,0.00,WeatherDisplay:10.37,2013-01-04 11:22:00,
2013-01-04 06:27:00,28.5,23.1,31.04,SW,217,9.0,12.0,80,0.00,CLR,CLR,0.00,WeatherDisplay:10.37,2013-01-04 11:27:00,
2013-01-04 06:32:00,28.5,23.1,31.04,SW,218,14.0,16.0,80,0.00,CLR,CLR,0.00,WeatherDisplay:10.37,2013-01-04 11:32:00,
2013-01-04 06:37:00,28.6,23.2,31.04,SSW,213,12.0,20.0,80,0.00,CLR,CLR,0.00,WeatherDisplay:10.37,2013-01-04 11:37:00,
2013-01-04 06:42:00,28.5,23.1,31.04,SSW,213,8.0,14.0,80,0.00,CLR,CLR,0.00,WeatherDisplay:10.37,2013-01-04 11:42:00,
2013-01-04 06:47:00,28.6,23.2,31.04,SW,218,8.0,13.0,80,0.00,CLR,CLR,0.00,WeatherDisplay:10.37,2013-01-04 11:47:00,
2013-01-04 06:52:00,28.5,23.1,31.05,SW,219,9.0,12.0,80,0.00,CLR,CLR,0.00,WeatherDisplay:10.37,2013-01-04 11:52:00,
2013-01-04 06:57:00,28.5,23.1,31.04,SW,218,10.0,16.0,80,0.00,CLR,CLR,0.00,WeatherDisplay:10.37,2013-01-04 11:57:00,
2013-01-04 07:02:00,28.5,23.1,31.04,SW,218,9.0,13.0,80,0.00,CLR,CLR,0.00,WeatherDisplay:10.37,2013-01-04 12:02:00,
2013-01-04 07:07:00,28.5,23.1,31.04,SW,218,9.0,16.0,80,0.00,CLR,CLR,0.00,WeatherDisplay:10.37,2013-01-04 12:07:00,
2013-01-04 07:12:00,28.5,23.1,31.04,SSW,209,7.0,15.0,80,0.00,CLR,CLR,0.00,WeatherDisplay:10.37,2013-01-04 12:12:00,
2013-01-04 07:17:00,28.4,23.0,31.04,SSW,211,12.0,16.0,80,0.00,CLR,CLR,0.00,WeatherDisplay:10.37,2013-01-04 12:17:00,
2013-01-04 07:22:00,28.4,23.0,31.05,SW,217,10.0,15.0,80,0.00,CLR,CLR,0.00,WeatherDisplay:10.37,2013-01-04 12:22:00,
2013-01-04 07:27:00,28.4,23.0,31.04,SW,220,10.0,20.0,80,0.00,CLR,CLR,0.00,WeatherDisplay:10.37,2013-01-04 12:27:00,
2013-01-04 07:32:00,28.5,22.8,31.05,SW,223,13.0,20.0,79,0.00,CLR,CLR,0.00,WeatherDisplay:10.37,2013-01-04 12:32:00,
2013-01-04 07:37:00,28.5,22.8,31.05,SW,219,8.0,17.0,79,0.00,CLR,CLR,0.00,WeatherDisplay:10.37,2013-01-04 12:37:00,
2013-01-04 07:42:00,28.5,22.8,31.04,SW,217,14.0,18.0,79,0.00,CLR,CLR,0.00,WeatherDisplay:10.37,2013-01-04 12:42:00,
2013-01-04 07:47:00,28.5,22.5,31.04,SSW,213,9.0,17.0,78,0.00,CLR,CLR,0.00,WeatherDisplay:10.37,2013-01-04 12:47:00,
2013-01-04 07:52:00,28.4,22.4,31.04,SSW,213,10.0,14.0,78,0.00,CLR,CLR,0.00,WeatherDisplay:10.37,2013-01-04 12:52:00,
2013-01-04 07:57:00,28.4,22.4,31.04,SSW,203,14.0,20.0,78,0.00,CLR,CLR,0.00,WeatherDisplay:10.37,2013-01-04 12:57:00,
2013-01-04 08:02:00,28.2,22.2,31.04,SSW,210,12.0,18.0,78,0.00,CLR,CLR,0.00,WeatherDisplay:10.37,2013-01-04 13:02:00,
2013-01-04 08:07:00,28.1,21.8,31.05,SW,218,13.0,20.0,77,0.00,CLR,CLR,0.00,WeatherDisplay:10.37,2013-01-04 13:07:00,
2013-01-04 08:12:00,28.1,21.8,31.05,SW,217,10.0,15.0,77,0.00,CLR,CLR,0.00,WeatherDisplay:10.37,2013-01-04 13:12:00,
2013-01-04 08:17:00,28.0,21.7,31.05,SW,220,12.0,15.0,77,0.00,CLR,CLR,0.00,WeatherDisplay:10.37,2013-01-04 13:17:00,
2013-01-04 08:22:00,27.9,21.6,31.05,SW,219,10.0,21.0,77,0.00,CLR,CLR,0.00,WeatherDisplay:10.37,2013-01-04 13:22:00,
2013-01-04 08:27:00,27.8,21.5,31.05,SW,216,10.0,16.0,77,0.00,CLR,CLR,0.00,WeatherDisplay:10.37,2013-01-04 13:27:00,
2013-01-04 08:32:00,27.6,21.1,31.05,SSW,213,13.0,18.0,76,0.00,CLR,CLR,0.00,WeatherDisplay:10.37,2013-01-04 13:32:00,
2013-01-04 08:37:00,27.4,20.8,31.05,SW,217,10.0,17.0,76,0.00,CLR,CLR,0.00,WeatherDisplay:10.37,2013-01-04 13:37:00,
2013-01-04 08:42:00,27.1,20.5,31.05,SW,214,14.0,20.0,76,0.00,CLR,CLR,0.00,WeatherDisplay:10.37,2013-01-04 13:42:00,
2013-01-04 08:47:00,26.9,20.3,31.05,SSW,210,10.0,14.0,76,0.00,CLR,CLR,0.00,WeatherDisplay:10.37,2013-01-04 13:47:00,
2013-01-04 08:52:00,26.9,20.3,31.05,SSW,211,12.0,17.0,76,0.00,CLR,CLR,0.00,WeatherDisplay:10.37,2013-01-04 13:52:00,
2013-01-04 08:57:00,26.9,20.3,31.05,SSW,213,10.0,14.0,76,0.00,CLR,CLR,0.00,WeatherDisplay:10.37,2013-01-04 13:57:00,
2013-01-04 09:02:00,26.9,20.3,31.06,SW,218,12.0,16.0,76,0.00,CLR,CLR,0.00,WeatherDisplay:10.37,2013-01-04 14:02:00,
2013-01-04 09:07:00,26.9,20.3,31.06,SW,216,9.0,14.0,76,0.00,CLR,CLR,0.00,WeatherDisplay:10.37,2013-01-04 14:07:00,
2013-01-04 09:12:00,26.7,20.1,31.06,SW,216,7.0,13.0,76,0.00,CLR,CLR,0.00,WeatherDisplay:10.37,2013-01-04 14:12:00,
2013-01-04 09:17:00,26.8,20.2,31.06,SW,214,9.0,15.0,76,0.00,CLR,CLR,0.00,WeatherDisplay:10.37,2013-01-04 14:17:00,
2013-01-04 09:22:00,27.0,20.1,31.06,SSW,212,12.0,22.0,75,0.00,CLR,CLR,0.00,WeatherDisplay:10.37,2013-01-04 14:22:00,
2013-01-04 09:27:00,27.1,20.2,31.06,SSW,213,16.0,22.0,75,0.00,CLR,CLR,0.00,WeatherDisplay:10.37,2013-01-04 14:27:00,
2013-01-04 09:32:00,27.3,20.4,31.06,SW,216,10.0,21.0,75,0.00,CLR,CLR,0.00,WeatherDisplay:10.37,2013-01-04 14:32:00,
2013-01-04 09:37:00,27.3,20.1,31.06,SW,216,15.0,22.0,74,0.00,CLR,CLR,0.00,WeatherDisplay:10.37,2013-01-04 14:37:00,
2013-01-04 09:42:00,27.3,20.1,31.05,SW,215,14.0,22.0,74,0.00,CLR,CLR,0.00,WeatherDisplay:10.37,2013-01-04 14:42:00,
2013-01-04 09:47:00,27.3,20.1,31.05,SW,219,10.0,22.0,74,0.00,CLR,CLR,0.00,WeatherDisplay:10.37,2013-01-04 14:47:00,
2013-01-04 09:52:00,27.3,20.4,31.06,SW,221,14.0,24.0,75,0.00,CLR,CLR,0.00,WeatherDisplay:10.37,2013-01-04 14:52:00,
2013-01-04 09:57:00,27.5,20.3,31.06,SW,229,13.0,17.0,74,0.00,CLR,CLR,0.00,WeatherDisplay:10.37,2013-01-04 14:57:00,
2013-01-04 10:02:00,27.6,20.4,31.05,SW,231,9.0,18.0,74,0.00,CLR,CLR,0.00,WeatherDisplay:10.37,2013-01-04 15:02:00,
2013-01-04 10:07:00,27.7,20.2,31.05,SW,229,14.0,22.0,73,0.00,CLR,CLR,0.00,WeatherDisplay:10.37,2013-01-04 15:07:00,
2013-01-04 10:12:00,27.7,20.2,31.05,SW,226,12.0,17.0,73,0.00,CLR,CLR,0.00,WeatherDisplay:10.37,2013-01-04 15:12:00,
2013-01-04 10:17:00,27.7,20.2,31.05,SW,218,9.0,18.0,73,0.00,CLR,CLR,0.00,WeatherDisplay:10.37,2013-01-04 15:17:00,
2013-01-04 10:22:00,27.8,20.3,31.05,SW,217,14.0,20.0,73,0.00,CLR,CLR,0.00,WeatherDisplay:10.37,2013-01-04 15:22:00,
2013-01-04 10:27:00,27.9,20.4,31.06,SW,216,15.0,23.0,73,0.00,CLR,CLR,0.00,WeatherDisplay:10.37,2013-01-04 15:27:00,
2013-01-04 10:32:00,28.0,20.4,31.05,SW,215,12.0,23.0,73,0.00,CLR,CLR,0.00,WeatherDisplay:10.37,2013-01-04 15:32:00,
2013-01-04 10:37:00,28.1,20.5,31.06,SW,222,14.0,20.0,73,0.00,CLR,CLR,0.00,WeatherDisplay:10.37,2013-01-04 15:37:00,
2013-01-04 10:42:00,28.1,20.2,31.05,SW,221,13.0,18.0,72,0.00,CLR,CLR,0.00,WeatherDisplay:10.37,2013-01-04 15:42:00,
2013-01-04 10:47:00,28.3,20.4,31.06,SW,221,12.0,22.0,72,0.00,CLR,CLR,0.00,WeatherDisplay:10.37,2013-01-04 15:47:00,
2013-01-04 10:52:00,28.3,20.4,31.05,SSW,213,15.0,23.0,72,0.00,CLR,CLR,0.00,WeatherDisplay:10.37,2013-01-04 15:52:00,
2013-01-04 10:57:00,28.4,20.5,31.05,SW,217,13.0,20.0,72,0.00,CLR,CLR,0.00,WeatherDisplay:10.37,2013-01-04 15:57:00,
2013-01-04 11:02:00,28.4,20.5,31.05,SW,220,14.0,22.0,72,0.00,CLR,CLR,0.00,WeatherDisplay:10.37,2013-01-04 16:02:00,
2013-01-04 11:07:00,28.5,20.6,31.05,SW,215,14.0,20.0,72,0.00,CLR,CLR,0.00,WeatherDisplay:10.37,2013-01-04 16:07:00,
2013-01-04 11:12:00,28.7,20.5,31.05,SSW,210,13.0,18.0,71,0.00,CLR,CLR,0.00,WeatherDisplay:10.37,2013-01-04 16:12:00,
2013-01-04 11:22:00,28.8,20.3,31.04,SSW,209,14.0,24.0,70,0.00,CLR,CLR,0.00,WeatherDisplay:10.37,2013-01-04 16:22:00,
2013-01-04 11:27:00,29.0,20.8,31.04,SW,215,15.0,25.0,71,0.00,CLR,CLR,0.00,WeatherDisplay:10.37,2013-01-04 16:27:00,
2013-01-04 11:32:00,29.2,20.6,31.03,SW,221,8.0,20.0,70,0.00,CLR,CLR,0.00,WeatherDisplay:10.37,2013-01-04 16:32:00,
2013-01-04 11:37:00,29.4,20.8,31.03,SW,214,17.0,21.0,70,0.00,CLR,CLR,0.00,WeatherDisplay:10.37,2013-01-04 16:37:00,
2013-01-04 11:42:00,29.6,21.0,31.03,SSW,212,13.0,20.0,70,0.00,CLR,CLR,0.00,WeatherDisplay:10.37,2013-01-04 16:42:00,
2013-01-04 11:47:00,29.7,20.8,31.03,SW,222,12.0,22.0,69,0.00,CLR,CLR,0.00,WeatherDisplay:10.37,2013-01-04 16:47:00,
2013-01-04 11:52:00,29.8,20.8,31.02,SW,222,12.0,23.0,69,0.00,CLR,CLR,0.00,WeatherDisplay:10.37,2013-01-04 16:52:00,
2013-01-04 11:57:00,29.9,20.6,31.02,SSW,211,14.0,21.0,68,0.00,CLR,CLR,0.00,WeatherDisplay:10.37,2013-01-04 16:57:00,
2013-01-04 12:02:00,30.0,20.7,31.01,SSW,213,9.0,22.0,68,0.00,CLR,CLR,0.00,WeatherDisplay:10.37,2013-01-04 17:02:00,
2013-01-04 12:07:00,30.2,20.9,31.01,SW,215,15.0,20.0,68,0.00,CLR,CLR,0.00,WeatherDisplay:10.37,2013-01-04 17:07:00,
2013-01-04 12:12:00,30.2,20.9,31.01,SSW,213,13.0,21.0,68,0.00,CLR,CLR,0.00,WeatherDisplay:10.37,2013-01-04 17:12:00,
2013-01-04 12:17:00,30.5,20.8,31.00,SW,214,14.0,20.0,67,0.00,CLR,CLR,0.00,WeatherDisplay:10.37,2013-01-04 17:17:00,
2013-01-04 12:22:00,30.5,20.8,31.00,SW,217,15.0,24.0,67,0.00,CLR,CLR,0.00,WeatherDisplay:10.37,2013-01-04 17:22:00,
2013-01-04 12:27:00,30.6,20.2,31.00,SW,214,17.0,29.0,65,0.00,CLR,CLR,0.00,WeatherDisplay:10.37,2013-01-04 17:27:00,
2013-01-04 12:32:00,30.5,20.2,31.00,SSW,208,16.0,23.0,65,0.00,CLR,CLR,0.00,WeatherDisplay:10.37,2013-01-04 17:32:00,
2013-01-04 12:37:00,30.6,20.2,31.00,SSW,211,17.0,25.0,65,0.00,CLR,CLR,0.00,WeatherDisplay:10.37,2013-01-04 17:37:00,
2013-01-04 12:42:00,30.8,20.5,30.99,SW,218,13.0,20.0,65,0.00,CLR,CLR,0.00,WeatherDisplay:10.37,2013-01-04 17:42:00,
2013-01-04 12:47:00,30.9,20.1,30.99,SW,226,15.0,21.0,64,0.00,CLR,CLR,0.00,WeatherDisplay:10.37,2013-01-04 17:47:00,
2013-01-04 12:52:00,31.2,20.4,30.98,SW,224,14.0,18.0,64,0.00,CLR,CLR,0.00,WeatherDisplay:10.37,2013-01-04 17:52:00,
2013-01-04 12:57:00,31.2,20.1,30.98,SW,217,13.0,18.0,63,0.00,CLR,CLR,0.00,WeatherDisplay:10.37,2013-01-04 17:57:00,
2013-01-04 13:02:00,31.5,20.0,30.98,SW,223,12.0,20.0,62,0.00,CLR,CLR,0.00,WeatherDisplay:10.37,2013-01-04 18:02:00,
2013-01-04 13:07:00,31.5,20.0,30.98,SW,217,16.0,23.0,62,0.00,CLR,CLR,0.00,WeatherDisplay:10.37,2013-01-04 18:07:00,
2013-01-04 13:12:00,31.4,19.9,30.98,SW,217,16.0,25.0,62,0.00,CLR,CLR,0.00,WeatherDisplay:10.37,2013-01-04 18:12:00,
2013-01-04 13:17:00,31.4,19.5,30.98,SSW,212,16.0,20.0,61,0.00,CLR,CLR,0.00,WeatherDisplay:10.37,2013-01-04 18:17:00,
2013-01-04 13:22:00,31.4,19.9,30.97,SW,218,13.0,20.0,62,0.00,CLR,CLR,0.00,WeatherDisplay:10.37,2013-01-04 18:22:00,
2013-01-04 13:27:00,31.4,20.2,30.97,SW,219,16.0,24.0,63,0.00,CLR,CLR,0.00,WeatherDisplay:10.37,2013-01-04 18:27:00,
2013-01-04 13:32:00,31.5,20.0,30.97,SW,219,15.0,24.0,62,0.00,CLR,CLR,0.00,WeatherDisplay:10.37,2013-01-04 18:32:00,
2013-01-04 13:37:00,31.7,19.8,30.97,SW,219,18.0,24.0,61,0.00,CLR,CLR,0.00,WeatherDisplay:10.37,2013-01-04 18:37:00,
2013-01-04 13:42:00,31.7,20.2,30.96,SW,222,12.0,22.0,62,0.00,CLR,CLR,0.00,WeatherDisplay:10.37,2013-01-04 18:42:00,
2013-01-04 13:47:00,32.0,20.1,30.96,SW,219,12.0,18.0,61,0.00,CLR,CLR,0.00,WeatherDisplay:10.37,2013-01-04 18:47:00,
2013-01-04 13:52:00,32.2,20.2,30.95,SW,216,9.0,22.0,61,0.00,CLR,CLR,0.00,WeatherDisplay:10.37,2013-01-04 18:52:00,
2013-01-04 13:57:00,32.4,20.0,30.95,SSW,211,13.0,23.0,60,0.00,CLR,CLR,0.00,WeatherDisplay:10.37,2013-01-04 18:57:00,
2013-01-04 14:02:00,32.4,20.0,30.95,SSW,209,16.0,23.0,60,0.00,CLR,CLR,0.00,WeatherDisplay:10.37,2013-01-04 19:02:00,
2013-01-04 14:07:00,32.4,20.0,30.94,SSW,209,14.0,30.0,60,0.00,CLR,CLR,0.00,WeatherDisplay:10.37,2013-01-04 19:07:00,
2013-01-04 14:12:00,32.5,20.1,30.95,SSW,208,12.0,21.0,60,0.00,CLR,CLR,0.00,WeatherDisplay:10.37,2013-01-04 19:12:00,
2013-01-04 14:17:00,32.7,20.3,30.95,SSW,208,10.0,22.0,60,0.00,CLR,CLR,0.00,WeatherDisplay:10.37,2013-01-04 19:17:00,
2013-01-04 14:22:00,32.5,20.9,30.95,SW,214,12.0,25.0,62,0.00,CLR,CLR,0.00,WeatherDisplay:10.37,2013-01-04 19:22:00,
2013-01-04 14:27:00,32.8,20.4,30.95,SW,219,13.0,16.0,60,0.00,CLR,CLR,0.00,WeatherDisplay:10.37,2013-01-04 19:27:00,
2013-01-04 14:32:00,32.5,20.1,30.95,SSW,209,17.0,24.0,60,0.00,CLR,CLR,0.00,WeatherDisplay:10.37,2013-01-04 19:32:00,
2013-01-04 14:37:00,32.5,20.1,30.95,SSW,211,12.0,23.0,60,0.00,CLR,CLR,0.00,WeatherDisplay:10.37,2013-01-04 19:37:00,
2013-01-04 14:42:00,32.6,20.6,30.96,SW,217,13.0,20.0,61,0.00,CLR,CLR,0.00,WeatherDisplay:10.37,2013-01-04 19:42:00,
2013-01-04 14:47:00,32.8,20.4,30.96,SW,218,13.0,20.0,60,0.00,CLR,CLR,0.00,WeatherDisplay:10.37,2013-01-04 19:47:00,
2013-01-04 14:52:00,32.9,20.5,30.96,SSW,212,15.0,20.0,60,0.00,CLR,CLR,0.00,WeatherDisplay:10.37,2013-01-04 19:52:00,
2013-01-04 14:57:00,32.9,20.1,30.96,SSW,206,12.0,20.0,59,0.00,CLR,CLR,0.00,WeatherDisplay:10.37,2013-01-04 19:57:00,
2013-01-04 15:02:00,32.9,20.1,30.96,SW,216,12.0,20.0,59,0.00,CLR,CLR,0.00,WeatherDisplay:10.37,2013-01-04 20:02:00,
2013-01-04 15:07:00,32.7,20.3,30.96,SW,214,14.0,29.0,60,0.00,CLR,CLR,0.00,WeatherDisplay:10.37,2013-01-04 20:07:00,
2013-01-04 15:12:00,32.8,20.4,30.97,SW,220,9.0,21.0,60,0.00,CLR,CLR,0.00,WeatherDisplay:10.37,2013-01-04 20:12:00,
2013-01-04 15:17:00,32.8,20.1,30.96,SW,220,13.0,22.0,59,0.00,CLR,CLR,0.00,WeatherDisplay:10.37,2013-01-04 20:17:00,
2013-01-04 15:22:00,32.8,20.8,30.97,SSW,211,12.0,17.0,61,0.00,CLR,CLR,0.00,WeatherDisplay:10.37,2013-01-04 20:22:00,
2013-01-04 15:27:00,32.7,20.3,30.97,SW,214,12.0,21.0,60,0.00,CLR,CLR,0.00,WeatherDisplay:10.37,2013-01-04 20:27:00,
2013-01-04 15:32:00,32.7,20.3,30.97,SW,215,17.0,25.0,60,0.00,CLR,CLR,0.00,WeatherDisplay:10.37,2013-01-04 20:32:00,
2013-01-04 15:37:00,32.7,20.3,30.97,SW,218,15.0,23.0,60,0.00,CLR,CLR,0.00,WeatherDisplay:10.37,2013-01-04 20:37:00,
2013-01-04 15:42:00,32.7,19.9,30.96,SW,215,18.0,26.0,59,0.00,CLR,CLR,0.00,WeatherDisplay:10.37,2013-01-04 20:42:00,
2013-01-04 15:47:00,32.8,20.0,30.96,SW,214,12.0,23.0,59,0.00,CLR,CLR,0.00,WeatherDisplay:10.37,2013-01-04 20:47:00,
2013-01-04 15:52:00,32.5,20.1,30.96,SW,214,15.0,23.0,60,0.00,CLR,CLR,0.00,WeatherDisplay:10.37,2013-01-04 20:52:00,
2013-01-04 15:57:00,32.3,20.0,30.97,SW,215,20.0,27.0,60,0.00,CLR,CLR,0.00,WeatherDisplay:10.37,2013-01-04 20:57:00,
2013-01-04 16:02:00,32.2,19.9,30.97,SW,216,13.0,24.0,60,0.00,CLR,CLR,0.00,WeatherDisplay:10.37,2013-01-04 21:02:00,
2013-01-04 16:07:00,32.2,19.8,30.97,SSW,209,15.0,25.0,60,0.00,CLR,CLR,0.00,WeatherDisplay:10.37,2013-01-04 21:07:00,
2013-01-04 16:12:00,31.9,19.6,30.96,SW,216,12.0,18.0,60,0.00,CLR,CLR,0.00,WeatherDisplay:10.37,2013-01-04 21:12:00,
2013-01-04 16:17:00,31.9,19.2,30.96,SW,215,15.0,24.0,59,0.00,CLR,CLR,0.00,WeatherDisplay:10.37,2013-01-04 21:17:00,
2013-01-04 16:22:00,31.9,19.6,30.96,SSW,208,12.0,18.0,60,0.00,CLR,CLR,0.00,WeatherDisplay:10.37,2013-01-04 21:22:00,
2013-01-04 16:32:00,31.7,19.4,30.96,SSW,208,13.0,22.0,60,0.00,CLR,CLR,0.00,WeatherDisplay:10.37,2013-01-04 21:32:00,
2013-01-04 16:37:00,31.5,19.2,30.96,SSW,212,10.0,20.0,60,0.00,CLR,CLR,0.00,WeatherDisplay:10.37,2013-01-04 21:37:00,
2013-01-04 16:42:00,31.3,19.1,30.96,SW,216,14.0,22.0,60,0.00,CLR,CLR,0.00,WeatherDisplay:10.37,2013-01-04 21:42:00,
2013-01-04 16:47:00,31.2,19.3,30.97,SW,218,14.0,23.0,61,0.00,CLR,CLR,0.00,WeatherDisplay:10.37,2013-01-04 21:47:00,
2013-01-04 16:52:00,30.8,19.3,30.96,SW,217,9.0,18.0,62,0.00,CLR,CLR,0.00,WeatherDisplay:10.37,2013-01-04 21:52:00,
2013-01-04 16:57:00,30.6,18.7,30.96,SSW,211,8.0,15.0,61,0.00,CLR,CLR,0.00,WeatherDisplay:10.37,2013-01-04 21:57:00,
2013-01-04 17:02:00,30.3,18.9,30.96,SSW,205,14.0,17.0,62,0.00,CLR,CLR,0.00,WeatherDisplay:10.37,2013-01-04 22:02:00,
2013-01-04 17:07:00,30.4,18.9,30.96,SSW,207,8.0,16.0,62,0.00,CLR,CLR,0.00,WeatherDisplay:10.37,2013-01-04 22:07:00,
2013-01-04 17:12:00,30.2,19.1,30.96,SSW,208,12.0,21.0,63,0.00,CLR,CLR,0.00,WeatherDisplay:10.37,2013-01-04 22:12:00,
2013-01-04 17:17:00,29.9,18.9,30.97,SSW,204,13.0,20.0,63,0.00,CLR,CLR,0.00,WeatherDisplay:10.37,2013-01-04 22:17:00,
2013-01-04 17:22:00,29.8,18.7,30.97,SSW,206,14.0,22.0,63,0.00,CLR,CLR,0.00,WeatherDisplay:10.37,2013-01-04 22:22:00,
2013-01-04 17:27:00,29.8,18.7,30.96,SSW,206,14.0,20.0,63,0.00,CLR,CLR,0.00,WeatherDisplay:10.37,2013-01-04 22:27:00,
2013-01-04 17:32:00,29.8,18.7,30.96,SSW,205,13.0,25.0,63,0.00,CLR,CLR,0.00,WeatherDisplay:10.37,2013-01-04 22:32:00,
2013-01-04 17:42:00,29.4,19.1,30.96,SW,216,9.0,21.0,65,0.00,CLR,CLR,0.00,WeatherDisplay:10.37,2013-01-04 22:42:00,
2013-01-04 17:47:00,29.2,18.9,30.97,SW,217,9.0,20.0,65,0.00,CLR,CLR,0.00,WeatherDisplay:10.37,2013-01-04 22:47:00,
2013-01-04 17:52:00,29.2,18.9,30.98,SW,219,13.0,18.0,65,0.00,CLR,CLR,0.00,WeatherDisplay:10.37,2013-01-04 22:52:00,
2013-01-04 17:57:00,29.0,18.7,30.98,SW,223,6.0,13.0,65,0.00,CLR,CLR,0.00,WeatherDisplay:10.37,2013-01-04 22:57:00,
2013-01-04 18:02:00,29.0,19.1,30.99,SW,230,8.0,15.0,66,0.00,CLR,CLR,0.00,WeatherDisplay:10.37,2013-01-04 23:02:00,
2013-01-04 18:07:00,28.9,19.0,31.00,SW,231,7.0,16.0,66,0.00,CLR,CLR,0.00,WeatherDisplay:10.37,2013-01-04 23:07:00,
2013-01-04 18:12:00,28.9,19.0,31.00,SW,225,9.0,14.0,66,0.00,CLR,CLR,0.00,WeatherDisplay:10.37,2013-01-04 23:12:00,
2013-01-04 18:17:00,28.7,18.7,31.00,SW,217,10.0,16.0,66,0.00,CLR,CLR,0.00,WeatherDisplay:10.37,2013-01-04 23:17:00,
2013-01-04 18:22:00,28.6,18.7,31.00,SW,220,13.0,15.0,66,0.00,CLR,CLR,0.00,WeatherDisplay:10.37,2013-01-04 23:22:00,
2013-01-04 18:27:00,28.7,19.1,31.00,SW,220,9.0,16.0,67,0.00,CLR,CLR,0.00,WeatherDisplay:10.37,2013-01-04 23:27:00,
2013-01-04 18:32:00,28.3,18.8,31.00,SW,214,9.0,14.0,67,0.00,CLR,CLR,0.00,WeatherDisplay:10.37,2013-01-04 23:32:00,
2013-01-04 18:37:00,28.3,18.7,31.00,SW,216,10.0,17.0,67,0.00,CLR,CLR,0.00,WeatherDisplay:10.37,2013-01-04 23:37:00,
2013-01-04 18:42:00,28.5,18.9,31.00,SW,216,13.0,20.0,67,0.00,CLR,CLR,0.00,WeatherDisplay:10.37,2013-01-04 23:42:00,
2013-01-04 18:47:00,28.5,18.9,31.01,SW,217,12.0,17.0,67,0.00,CLR,CLR,0.00,WeatherDisplay:10.37,2013-01-04 23:47:00,
2013-01-04 18:52:00,28.5,19.3,31.01,SW,223,12.0,18.0,68,0.00,CLR,CLR,0.00,WeatherDisplay:10.37,2013-01-04 23:52:00,
2013-01-04 18:57:00,28.4,19.2,31.01,SW,229,10.0,18.0,68,0.00,CLR,CLR,0.00,WeatherDisplay:10.37,2013-01-04 23:57:00,
2013-01-04 19:02:00,28.3,19.1,31.02,SW,228,13.0,18.0,68,0.00,CLR,CLR,0.00,WeatherDisplay:10.37,2013-01-05 00:02:00,
2013-01-04 19:07:00,28.1,18.9,31.02,SW,227,10.0,15.0,68,0.00,CLR,CLR,0.00,WeatherDisplay:10.37,2013-01-05 00:07:00,
2013-01-04 19:12:00,28.1,18.9,31.02,SW,226,10.0,15.0,68,0.00,CLR,CLR,0.00,WeatherDisplay:10.37,2013-01-05 00:12:00,
2013-01-04 19:17:00,28.0,18.8,31.01,SW,219,13.0,18.0,68,0.00,CLR,CLR,0.00,WeatherDisplay:10.37,2013-01-05 00:17:00,
2013-01-04 19:22:00,28.0,18.8,31.01,SW,215,12.0,17.0,68,0.00,CLR,CLR,0.00,WeatherDisplay:10.37,2013-01-05 00:22:00,
2013-01-04 19:27:00,27.9,19.0,31.02,SW,219,12.0,17.0,69,0.00,CLR,CLR,0.00,WeatherDisplay:10.37,2013-01-05 00:27:00,
2013-01-04 19:37:00,28.1,19.2,31.04,SW,230,9.0,17.0,69,0.00,CLR,CLR,0.00,WeatherDisplay:10.37,2013-01-05 00:37:00,
2013-01-04 19:42:00,27.9,19.0,31.04,SW,226,10.0,17.0,69,0.00,CLR,CLR,0.00,WeatherDisplay:10.37,2013-01-05 00:42:00,
2013-01-04 19:47:00,28.0,19.1,31.04,SW,226,12.0,17.0,69,0.00,CLR,CLR,0.00,WeatherDisplay:10.37,2013-01-05 00:47:00,
2013-01-04 19:52:00,27.9,19.1,31.04,SW,230,8.0,13.0,69,0.00,CLR,CLR,0.00,WeatherDisplay:10.37,2013-01-05 00:52:00,
2013-01-04 19:57:00,27.9,19.0,31.04,SW,226,7.0,12.0,69,0.00,CLR,CLR,0.00,WeatherDisplay:10.37,2013-01-05 00:57:00,
2013-01-04 20:02:00,27.8,18.9,31.05,SW,224,7.0,15.0,69,0.00,CLR,CLR,0.00,WeatherDisplay:10.37,2013-01-05 01:02:00,
2013-01-04 20:07:00,27.7,18.8,31.05,SW,222,8.0,12.0,69,0.00,CLR,CLR,0.00,WeatherDisplay:10.37,2013-01-05 01:07:00,
2013-01-04 20:12:00,27.7,19.2,31.05,SW,225,8.0,14.0,70,0.00,CLR,CLR,0.00,WeatherDisplay:10.37,2013-01-05 01:12:00,
2013-01-04 20:17:00,27.6,18.8,31.05,SW,226,6.0,12.0,69,0.00,CLR,CLR,0.00,WeatherDisplay:10.37,2013-01-05 01:17:00,
2013-01-04 20:22:00,27.7,19.2,31.05,SW,222,9.0,17.0,70,0.00,CLR,CLR,0.00,WeatherDisplay:10.37,2013-01-05 01:22:00,
2013-01-04 20:27:00,27.5,19.0,31.05,SW,227,8.0,12.0,70,0.00,CLR,CLR,0.00,WeatherDisplay:10.37,2013-01-05 01:27:00,
2013-01-04 20:32:00,27.6,19.1,31.05,SW,229,7.0,16.0,70,0.00,CLR,CLR,0.00,WeatherDisplay:10.37,2013-01-05 01:32:00,
2013-01-04 20:37:00,27.4,18.9,31.06,SW,226,5.0,10.0,70,0.00,CLR,CLR,0.00,WeatherDisplay:10.37,2013-01-05 01:37:00,
2013-01-04 20:42:00,27.2,18.8,31.06,SW,228,6.0,12.0,70,0.00,CLR,CLR,0.00,WeatherDisplay:10.37,2013-01-05 01:42:00,
2013-01-04 20:47:00,27.1,19.0,31.06,SW,227,7.0,15.0,71,0.00,CLR,CLR,0.00,WeatherDisplay:10.37,2013-01-05 01:47:00,
2013-01-04 20:52:00,27.1,18.9,31.06,SW,230,7.0,12.0,71,0.00,CLR,CLR,0.00,WeatherDisplay:10.37,2013-01-05 01:52:00,
2013-01-04 20:57:00,26.7,18.6,31.06,SW,230,5.0,8.0,71,0.00,CLR,CLR,0.00,WeatherDisplay:10.37,2013-01-05 01:57:00,
2013-01-04 21:02:00,26.5,19.0,31.06,SW,225,8.0,12.0,73,0.00,CLR,CLR,0.00,WeatherDisplay:10.37,2013-01-05 02:02:00,
2013-01-04 21:07:00,26.7,18.9,31.06,SW,222,7.0,12.0,72,0.00,CLR,CLR,0.00,WeatherDisplay:10.37,2013-01-05 02:07:00,
2013-01-04 21:12:00,26.9,19.1,31.06,SW,223,10.0,15.0,72,0.00,CLR,CLR,0.00,WeatherDisplay:10.37,2013-01-05 02:12:00,
2013-01-04 21:17:00,27.1,19.3,31.06,SW,225,8.0,13.0,72,0.00,CLR,CLR,0.00,WeatherDisplay:10.37,2013-01-05 02:17:00,
2013-01-04 21:22:00,27.1,19.3,31.06,SW,229,9.0,16.0,72,0.00,CLR,CLR,0.00,WeatherDisplay:10.37,2013-01-05 02:22:00,
2013-01-04 21:27:00,27.0,19.2,31.06,SW,231,9.0,14.0,72,0.00,CLR,CLR,0.00,WeatherDisplay:10.37,2013-01-05 02:27:00,
2013-01-04 21:32:00,27.2,19.4,31.06,SW,231,6.0,21.0,72,0.00,CLR,CLR,0.00,WeatherDisplay:10.37,2013-01-05 02:32:00,
2013-01-04 21:37:00,26.8,19.0,31.07,SW,232,6.0,12.0,72,0.00,CLR,CLR,0.00,WeatherDisplay:10.37,2013-01-05 02:37:00,
2013-01-04 21:42:00,26.3,18.8,31.07,SW,232,8.0,13.0,73,0.00,CLR,CLR,0.00,WeatherDisplay:10.37,2013-01-05 02:42:00,
2013-01-04 21:47:00,26.3,19.2,31.07,SW,233,6.0,12.0,74,0.00,CLR,CLR,0.00,WeatherDisplay:10.37,2013-01-05 02:47:00,
2013-01-04 21:52:00,26.3,19.1,31.07,SW,230,6.0,9.0,74,0.00,CLR,CLR,0.00,WeatherDisplay:10.37,2013-01-05 02:52:00,
2013-01-04 21:57:00,26.0,18.8,31.07,SW,230,6.0,8.0,74,0.00,CLR,CLR,0.00,WeatherDisplay:10.37,2013-01-05 02:57:00,
2013-01-04 22:02:00,26.1,19.3,31.07,SW,236,7.0,14.0,75,0.00,CLR,CLR,0.00,WeatherDisplay:10.37,2013-01-05 03:02:00,
2013-01-04 22:07:00,26.4,19.5,31.07,WSW,240,6.0,13.0,75,0.00,CLR,CLR,0.00,WeatherDisplay:10.37,2013-01-05 03:07:00,
2013-01-04 22:12:00,26.4,19.5,31.07,SW,233,7.0,9.0,75,0.00,CLR,CLR,0.00,WeatherDisplay:10.37,2013-01-05 03:12:00,
2013-01-04 22:17:00,26.5,19.6,31.07,SW,232,10.0,14.0,75,0.00,CLR,CLR,0.00,WeatherDisplay:10.37,2013-01-05 03:17:00,
2013-01-04 22:22:00,26.4,19.5,31.08,SW,233,6.0,10.0,75,0.00,CLR,CLR,0.00,WeatherDisplay:10.37,2013-01-05 03:22:00,
2013-01-04 22:27:00,26.6,20.0,31.08,SW,233,8.0,15.0,76,0.00,CLR,CLR,0.00,WeatherDisplay:10.37,2013-01-05 03:27:00,
2013-01-04 22:32:00,26.9,20.3,31.08,SW,231,7.0,13.0,76,0.00,CLR,CLR,0.00,WeatherDisplay:10.37,2013-01-05 03:32:00,
2013-01-04 22:37:00,26.9,20.3,31.08,SW,229,7.0,12.0,76,0.00,CLR,CLR,0.00,WeatherDisplay:10.37,2013-01-05 03:37:00,
2013-01-04 22:42:00,26.9,20.3,31.08,SW,236,7.0,10.0,76,0.00,CLR,CLR,0.00,WeatherDisplay:10.37,2013-01-05 03:42:00,
2013-01-04 22:47:00,26.9,20.3,31.08,SW,232,8.0,12.0,76,0.00,CLR,CLR,0.00,WeatherDisplay:10.37,2013-01-05 03:47:00,
2013-01-04 22:52:00,26.9,20.4,31.08,SW,230,7.0,10.0,76,0.00,CLR,CLR,0.00,WeatherDisplay:10.37,2013-01-05 03:52:00,
2013-01-04 22:57:00,26.9,20.3,31.08,SW,229,8.0,13.0,76,0.00,CLR,CLR,0.00,WeatherDisplay:10.37,2013-01-05 03:57:00,
2013-01-04 23:02:00,26.9,20.3,31.08,SW,225,9.0,14.0,76,0.00,CLR,CLR,0.00,WeatherDisplay:10.37,2013-01-05 04:02:00,
2013-01-04 23:07:00,26.9,20.7,31.09,SW,225,8.0,12.0,77,0.00,CLR,CLR,0.00,WeatherDisplay:10.37,2013-01-05 04:07:00,
2013-01-04 23:12:00,26.8,20.6,31.09,SW,226,8.0,10.0,77,0.00,CLR,CLR,0.00,WeatherDisplay:10.37,2013-01-05 04:12:00,
2013-01-04 23:17:00,26.8,20.6,31.09,SW,228,8.0,10.0,77,0.00,CLR,CLR,0.00,WeatherDisplay:10.37,2013-01-05 04:17:00,
2013-01-04 23:22:00,26.9,20.6,31.09,SW,224,6.0,12.0,77,0.00,CLR,CLR,0.00,WeatherDisplay:10.37,2013-01-05 04:22:00,
2013-01-04 23:27:00,26.8,20.5,31.09,SW,226,9.0,10.0,77,0.00,CLR,CLR,0.00,WeatherDisplay:10.37,2013-01-05 04:27:00,
2013-01-04 23:32:00,26.9,20.7,31.10,SW,235,8.0,13.0,77,0.00,CLR,CLR,0.00,WeatherDisplay:10.37,2013-01-05 04:32:00,
2013-01-04 23:37:00,26.9,20.7,31.10,WSW,239,7.0,12.0,77,0.00,CLR,CLR,0.00,WeatherDisplay:10.37,2013-01-05 04:37:00,
2013-01-04 23:42:00,26.9,21.0,31.10,WSW,239,8.0,10.0,78,0.00,CLR,CLR,0.00,WeatherDisplay:10.37,2013-01-05 04:42:00,
2013-01-04 23:47:00,27.0,21.1,31.10,WSW,237,7.0,12.0,78,0.00,CLR,CLR,0.00,WeatherDisplay:10.37,2013-01-05 04:47:00,
2013-01-04 23:52:00,27.1,21.1,31.10,SW,229,7.0,12.0,78,0.00,CLR,CLR,0.00,WeatherDisplay:10.37,2013-01-05 04:52:00,
2013-01-04 23:57:00,27.1,21.2,31.10,SW,223,7.0,12.0,78,0.00,CLR,CLR,0.00,WeatherDisplay:10.37,2013-01-05 04:57:00,